Location: Brunembert
(50.7122°N, 1.8935°E)
Time: 10:25:07
(UTC+00:00)

Cosmos 1408 Rocket - Pass Details

Date: 22 April 2021
Orbit: 601 x 631 km, 82.6° (Epoch: 16 May)

Event Time Altitude Azimuth Distance (km) Brightness Sun altitude
Rises 21:27:05 0° 348° (NNW) 2,867 8.1 -19.4°
Reaches altitude 10° 21:29:18 10° 348° (NNW) 1,961 7.1 -19.7°
Maximum altitude 21:33:38 81° 263° (W) 621 3.5 -20.1°
Enters shadow 21:34:53 46° 182° (S) 819 3.8 -20.2°
